Regional Weather Roundup
Issued by NWS

Home | Current Version | Previous Version | Text Only | Print | Product List | Glossary On
Versions: 1 2 3 4 5 6 7 8 9 10 11 12 13 14 15 16 17 18 19 20 21 22 23 24 25 26 27 28 29 30 31 32 33 34 35 36 37 38 39 40 41 42 43 44 45 46 47 48 49 50
000
ASUS46 KSEW 251510
RWRWA

WASHINGTON REGIONAL WEATHER ROUNDUP
NATIONAL WEATHER SERVICE SEATTLE WA
800 AM PDT TUE JUL 25 2017

NOTE:"FAIR" INDICATES FEW OR NO CLOUDS BELOW 12,000 FEET WITH NO
SIGNIFICANT WEATHER AND/OR OBSTRUCTIONS TO VISIBILITY.

WAZ507-509-555>559-251600-
SEATTLE, TACOMA, EVERETT, AND VICINITY

CITY           SKY/WX    TMP DP  RH WIND       PRES   REMARKS
EVERETT        SUNNY     62  52  69 W3        30.05R
BOEING FIELD   SUNNY     64  54  69 VRB3      30.03R
RENTON         SUNNY     65  56  72 CALM      30.03R
SEATAC AIRPORT MOSUNNY   65  53  65 W5        30.04R
JBLM-MCCHORD   SUNNY     62  57  85 CALM      30.04R
PUYALLUP       FAIR      64  57  77 CALM      30.04S
BREMERTON      SUNNY     67  52  58 N5        30.05R
JBLM-FT LEWIS  SUNNY     62  59  89 W3        30.03S
TACOMA NARROWS SUNNY     62  54  74 W3        30.05R
$$

WAZ001-503-506-510-514-515-251600-
NORTH INTERIOR

CITY           SKY/WX    TMP DP  RH WIND       PRES   REMARKS
BELLINGHAM     SUNNY     63  58  83 SE5       30.02S
FRIDAY HARBOR  SUNNY     59  55  87 SE5       30.05R
EASTSOUND      SUNNY     63  57  82 NW9       30.04S
PORT ANGELES   SUNNY     61  54  77 CALM      30.05R
EDIZ HOOK      FAIR      57  51  81 CALM      30.04S
PORT TOWNSEND  FAIR      59  54  82 CALM      30.05R
NAS WHIDBEY    MOSUNNY   59  51  75 W6        30.08R
ARLINGTON      SUNNY     59  53  80 CALM      30.05R
BURLINGTON     SUNNY     63  57  82 CALM      30.04R
$$

WAZ020-022-039-040-504-511-512-251600-
SOUTHWEST INTERIOR

CITY           SKY/WX    TMP DP  RH WIND       PRES   REMARKS
SHELTON        CLOUDY    56  54  93 W5        30.03R
OLYMPIA        SUNNY     60  56  86 CALM      30.04S
CHEHALIS       FAIR      59  57  94 CALM      30.04S
KELSO          SUNNY     61  56  83 VRB6      30.03S
VANCOUVER      SUNNY     65  57  75 N5        30.00R
SCAPPOOSE, OR  SUNNY     65  55  70 NE5       29.99S
PORTLAND, OR   MOSUNNY   63  56  78 CALM      30.01R
$$

WAZ021-516-517-251600-
WASHINGTON COAST

CITY           SKY/WX    TMP DP  RH WIND       PRES   REMARKS
FORKS          CLOUDY    54  52  93 CALM      30.05R
HOQUIAM        CLOUDY    56  55  97 E3        30.06R FOG
ASTORIA, OR    CLOUDY    59  54  83 CALM      30.05R
$$

WAZ019-023-024-040-567>569-251600-
CASCADE MOUNTAINS AND COLUMBIA GORGE

CITY           SKY/WX    TMP DP  RH WIND       PRES   REMARKS
STAMPEDE PASS  SUNNY     59  50  72 SW3       30.12S
TROUTDALE, OR  SUNNY     64  57  78 CALM      30.00R
HOOD RIVER, OR SUNNY     64  54  68 CALM      29.98R
THE DALLES, OR MOSUNNY   71  58  63 NW13      29.94R
$$

WAZ026-027-041>044-520-521-251600-
EAST SLOPES

CITY           SKY/WX    TMP DP  RH WIND       PRES   REMARKS
OMAK           SUNNY     68  40  35 N14       30.04S
WENATCHEE      SUNNY     67  48  50 W7        30.02R
ELLENSBURG     SUNNY     65  49  56 CALM      30.03R
YAKIMA         SUNNY     70  52  52 W7        30.00R
SUNNYSIDE ARPT   N/A     63  52  66 CALM      29.97S
YAKIMA TC      FAIR      73  46  38 N8        29.99R
$$

WAZ028-034-035-251600-
COLUMBIA BASIN

CITY           SKY/WX    TMP DP  RH WIND       PRES   REMARKS
EPHRATA        SUNNY     75  37  25 N15       29.99R
MOSES LAKE     SUNNY     71  42  35 N8        29.99S
PASCO          SUNNY     68  50  52 N7        29.96S
RICHLAND ARPT  SUNNY     71  50  46 CALM      29.97R
HERMISTON, OR  SUNNY     69  39  33 S5        29.95S
$$

WAZ036>038-251600-
NORTHEAST WASHINGTON

CITY           SKY/WX    TMP DP  RH WIND       PRES   REMARKS
SPOKANE GEIGER MOSUNNY   67  41  38 E7        30.04R
SPOKANE FELTS  SUNNY     65  45  48 CALM      30.03R
FAIRCHILD AFB  NOT AVBL
COEURDALENE,ID SUNNY     65  44  46 NE12      30.04R
DEER PARK      SUNNY     69  40  34 N8        30.03R
$$

WAZ029>033-251600-
SOUTHEAST WASHINGTON

CITY           SKY/WX    TMP DP  RH WIND       PRES   REMARKS
PULLMAN        SUNNY     67  40  37 CALM      30.04R HAZE
LEWISTON, ID   SUNNY     68  41  37 E6        30.00R
WALLA WALLA    SUNNY     73  41  31 S5        29.97S
PENDLETON, OR  SUNNY     68  38  33 SE5       29.98R
$$



USA.gov is the U.S. government's official web portal to all federal, state and local government web resources and services.